This is the latest recevied weather packets stored in our database for station/object JH4GLG-13. If no packets are shown the sender has not sent any weather packets the latest 10 day(s).
| Time | Temp. | Humidity | Pressure | Rain* | Wind** | Luminosity | Snow |
|---|---|---|---|---|---|---|---|
| 1777470928 | 16.11° C | 82% | 1018.6 hPa | 0 mm | - | - | - |
| 1777470027 | 16.11° C | 82% | 1018.5 hPa | 0 mm | - | - | - |
| 1777469127 | 16.11° C | 78% | 1018.4 hPa | 0 mm | - | - | - |
| 1777468226 | 16.67° C | 76% | 1018.3 hPa | 0 mm | - | - | - |
| 1777467327 | 16.67° C | 77% | 1018.4 hPa | 0 mm | - | - | - |
| 1777466426 | 16.67° C | 73% | 1018.4 hPa | 0 mm | - | - | - |
| 1777465527 | 17.22° C | 74% | 1018.4 hPa | 0 mm | - | - | - |
| 1777464626 | 17.78° C | 72% | 1018.4 hPa | 0 mm | - | - | - |
| 1777463727 | 17.78° C | 71% | 1018.3 hPa | 0 mm | - | - | - |
| 1777462826 | 17.78° C | 69% | 1018.3 hPa | 0 mm | - | - | - |
| 1777461930 | 17.78° C | 69% | 1018.1 hPa | 0 mm | - | - | - |
| 1777461926 | 17.78° C | 68% | 1018.1 hPa | 0 mm | - | - | - |
| 1777461026 | 18.33° C | 67% | 1018 hPa | 0 mm | - | - | - |
| 1777460126 | 17.78° C | 64% | 1017.8 hPa | 0 mm | - | - | - |
| 1777459226 | 18.33° C | 64% | 1017.6 hPa | 0 mm | - | - | - |
| 1777458365 | 18.33° C | 63% | 1017.5 hPa | 0 mm | - | - | - |
| 1777458326 | 18.33° C | 63% | 1017.5 hPa | 0 mm | - | - | - |
| 1777457425 | 18.33° C | 64% | 1017.4 hPa | 0 mm | - | - | - |
| 1777456526 | 18.89° C | 63% | 1017.4 hPa | 0 mm | - | - | - |
| 1777455624 | 18.89° C | 66% | 1017.1 hPa | 0 mm | - | - | - |
| 1777454726 | 19.44° C | 68% | 1016.9 hPa | 0 mm | - | - | - |
| 1777453824 | 19.44° C | 67% | 1016.8 hPa | 0 mm | - | - | - |
| 1777452925 | 19.44° C | 65% | 1016.7 hPa | 0 mm | - | - | - |
| 1777452025 | 19.44° C | 63% | 1016.5 hPa | 0 mm | - | - | - |
| 1777451125 | 19.44° C | 62% | 1016.4 hPa | 0 mm | - | - | - |
* Rain latest hour (hover to see other rain measurements)
** Current wind speed in m/s (hover to see current wind gust speed)